Location: Newark
(33.8183°N, 118.0392°W)
Time: 01:57:02
(UTC+00:00)

OTV 5 (USA 277) - Visible Passes

Search period start: 14 October 2019 00:00
Search period end: 24 October 2019 00:00
Orbit: 310 x 324 km, 54.5° (Epoch: 08 October)

Date Brightness Start Highest point End Pass type
(mag) Time Alt. Az. Time Alt. Az. Time Alt. Az.
17 Oct ? 13:29:51 10° N 13:31:36 15° NE 13:33:21 10° E visible
19 Oct ? 12:25:59 10° NNE 12:26:18 10° NE 12:26:37 10° NE visible
20 Oct ? 12:39:44 17° N 12:41:05 24° NE 12:43:24 10° E visible
21 Oct ? 12:54:32 30° NW 12:55:42 87° NE 12:58:24 10° SE visible
22 Oct ? 13:09:28 21° WSW 13:10:08 23° SW 13:12:23 10° S visible
